QPF
0.00 0.00 0.00 0.00 0.00 0.00 0.00 0.00 0.00 0.00 0.00 0.00 0.00 0.00 0.00 0.00 0.00 0.00 0.00 0.00 0.00 0.00 0.00 0.00 0.00 0.00 0.00 0.00 0.00 0.00 0.00 0.00
0.00 0.00 0.00 0.00 0.00 0.00 0.00 0.00 0.00 0.00 0.00 0.00 0.00 0.00 0.00 0.00 0.00 0.00 0.00 0.00 0.00 0.00 0.00 0.00 0.00 0.00 0.00 0.00 0.00 0.00 0.00 0.00
0.00 0.00 0.00 0.00 0.00 0.00 0.00 0.00 0.00 0.00 0.00 0.00 0.00 0.00 0.00 0.00 0.00 0.00 0.00 0.00 0.00 0.00 0.00 0.00 0.00 0.00 0.00 0.00 0.00 0.00 0.00 0.00
0.00 0.00 0.00 0.00 0.00 0.00 0.00 0.00 0.00 0.00 0.00 0.00 0.00 0.00 0.00 0.00 0.00 0.00 0.00 0.00 0.00 0.00 0.00 0.00 0.00 0.00 0.00 0.00 0.00 0.00 0.00 0.00
0.00 0.00 0.00 0.00 0.00 0.00 0.00 0.00 0.00 0.00 0.00 0.00 0.00 0.00 0.00 0.00 0.00 0.00 0.00 0.00 0.00 0.00 0.00 0.00 0.00 0.00 0.00 0.00 0.00 0.00 0.00 0.00
0.00 0.00 0.00 0.00 0.00 0.00 0.00 0.00 0.00 0.00 0.00 0.00 0.00 0.00 0.00 0.00 0.00 0.00 0.00 0.00 0.00 0.00 0.00 0.00 0.00 0.00 0.00 0.00 0.00 0.00 0.00 0.00
0.02 0.00 0.00 0.00 0.00 0.00 0.00 0.00 0.00 0.00 0.00 0.00 0.00 0.00 0.00 0.00 0.00 0.00 0.00 0.00 0.00 0.00 0.00 0.00 0.00 0.00 0.00 0.00 0.00 0.00 0.00 0.00
0.03 0.03 0.01 0.00 0.00 0.00 0.00 0.00 0.00 0.00 0.00 0.00 0.00 0.00 0.00 0.00 0.00 0.00 0.00 0.00 0.00 0.00 0.00 0.00 0.00 0.00 0.00 0.00 0.00 0.00 0.00 0.00
0.03 0.01 0.08 0.04 0.00 0.00 0.00 0.00 0.00 0.00 0.00 0.00 0.00 0.00 0.00 0.00 0.00 0.00 0.00 0.00 0.00 0.00 0.00 0.00 0.00 0.00 0.00 0.00 0.00 0.00 0.00 0.00
0.02 0.00 0.08 0.12 0.01 0.01 0.00 0.00 0.00 0.00 0.00 0.00 0.00 0.00 0.00 0.00 0.00 0.00 0.00 0.00 0.00 0.00 0.00 0.00 0.00 0.00 0.00 0.00 0.00 0.00 0.00 0.00
0.01 0.01 0.04 0.13 0.06 0.02 0.00 0.00 0.00 0.00 0.00 0.00 0.00 0.00 0.00 0.00 0.00 0.00 0.00 0.00 0.00 0.00 0.00 0.00 0.00 0.00 0.00 0.00 0.00 0.00 0.00 0.00
0.00 0.00 0.00 0.05 0.07 0.03 0.00 0.00 0.00 0.00 0.00 0.00 0.00 0.00 0.00 0.00 0.00 0.00 0.00 0.00 0.00 0.00 0.00 0.00 0.00 0.00 0.00 0.00 0.00 0.00 0.00 0.00
0.00 0.00 0.01 0.07 0.04 0.01 0.01 0.00 0.00 0.00 0.00 0.00 0.00 0.00 0.00 0.00 0.00 0.00 0.00 0.00 0.00 0.00 0.00 0.00 0.00 0.00 0.00 0.00 0.00 0.00 0.00 0.00
0.00 0.00 0.00 0.06 0.07 0.05 0.03 0.01 0.00 0.00 0.00 0.00 0.00 0.00 0.00 0.00 0.00 0.00 0.00 0.00 0.00 0.00 0.00 0.00 0.00 0.00 0.00 0.00 0.00 0.00 0.00 0.00
0.00 0.00 0.00 0.00 0.01 0.03 0.03 0.04 0.02 0.00 0.00 0.00 0.00 0.00 0.00 0.00 0.00 0.00 0.00 0.00 0.00 0.00 0.00 0.00 0.00 0.00 0.00 0.00 0.00 0.00 0.00 0.00
0.00 0.00 0.00 0.00 0.01 0.00 0.01 0.01 0.01 0.00 0.00 0.00 0.00 0.00 0.00 0.00 0.00 0.00 0.00 0.00 0.00 0.00 0.00 0.00 0.00 0.00 0.00 0.00 0.00 0.00 0.00 0.00
0.00 0.00 0.00 0.00 0.01 0.02 0.03 0.00 0.00 0.01 0.01 0.01 0.00 0.00 0.00 0.00 0.00 0.00 0.00 0.00 0.00 0.00 0.00 0.00 0.00 0.00 0.00 0.00 0.00 0.00 0.00 0.00
0.00 0.00 0.00 0.00 0.00 0.03 0.03 0.02 0.02 0.01 0.01 0.02 0.01 0.02 0.01 0.00 0.00 0.00 0.00 0.00 0.00 0.00 0.00 0.00 0.00 0.00 0.00 0.00 0.00 0.00 0.00 0.00
0.00 0.00 0.00 0.00 0.00 0.00 0.02 0.02 0.08 0.06 0.02 0.03 0.02 0.02 0.03 0.01 0.00 0.00 0.00 0.00 0.00 0.00 0.00 0.00 0.00 0.00 0.00 0.00 0.00 0.00 0.00 0.00
0.00 0.00 0.00 0.00 0.00 0.00 0.00 0.00 0.02 0.07 0.04 0.02 0.02 0.00 0.02 0.05 0.02 0.01 0.00 0.00 0.00 0.00 0.00 0.00 0.00 0.00 0.00 0.00 0.00 0.00 0.00 0.00
MSLP
1014.31 1014.87 1015.18 1015.44 1015.81 1016.14 1016.45 1016.88 1017.05 1017.54 1017.69 1018.05 1018.33 1018.68 1018.92 1019.20 1019.50 1019.91 1020.27 1020.53 1020.78 1021.08 1021.38 1021.41 1021.54 1021.72 1021.99 1022.20 1022.50 1022.72 1022.85 1022.96
1014.47 1014.86 1015.33 1015.82 1016.28 1016.50 1016.77 1017.18 1017.51 1017.64 1018.12 1018.33 1018.76 1018.95 1019.22 1019.37 1019.67 1019.91 1020.27 1020.55 1020.90 1021.28 1021.55 1021.69 1021.88 1021.98 1022.18 1022.42 1022.70 1022.96 1023.28 1023.31
1014.61 1014.90 1015.45 1015.94 1016.49 1016.87 1017.13 1017.38 1017.86 1018.11 1018.31 1018.78 1019.10 1019.43 1019.48 1019.69 1019.88 1020.15 1020.26 1020.53 1020.92 1021.38 1021.78 1021.97 1022.11 1022.19 1022.31 1022.58 1022.82 1023.20 1023.52 1023.76
1014.88 1015.03 1015.27 1015.97 1016.51 1017.01 1017.44 1017.77 1018.06 1018.56 1018.70 1018.94 1019.35 1019.67 1019.96 1019.88 1020.06 1020.32 1020.53 1020.69 1020.93 1021.33 1021.88 1022.19 1022.34 1022.57 1022.75 1022.87 1023.11 1023.32 1023.63 1023.95
1015.21 1015.02 1015.26 1015.72 1016.30 1016.96 1017.50 1017.82 1018.21 1018.55 1019.06 1019.15 1019.44 1019.82 1020.23 1020.52 1020.40 1020.58 1020.84 1020.92 1021.13 1021.30 1021.73 1022.24 1022.43 1022.60 1022.85 1023.10 1023.33 1023.45 1023.72 1024.01
1014.77 1014.96 1015.18 1015.49 1015.96 1016.70 1017.28 1017.67 1018.11 1018.46 1018.95 1019.36 1019.49 1019.83 1020.17 1020.53 1020.88 1020.81 1020.93 1021.12 1021.35 1021.46 1021.72 1022.12 1022.48 1022.51 1022.66 1023.00 1023.29 1023.54 1023.75 1024.11
1014.83 1014.80 1014.95 1015.10 1015.55 1016.22 1016.82 1017.39 1017.81 1018.20 1018.69 1019.26 1019.49 1019.72 1020.04 1020.35 1020.79 1021.13 1021.19 1021.23 1021.35 1021.63 1021.76 1021.94 1022.35 1022.43 1022.59 1022.76 1023.13 1023.49 1023.79 1024.01
1014.76 1014.57 1014.57 1014.92 1015.06 1015.45 1016.03 1016.79 1017.45 1017.97 1018.32 1018.69 1019.35 1019.65 1019.94 1020.24 1020.53 1020.89 1021.24 1021.34 1021.49 1021.63 1021.74 1021.90 1022.10 1022.45 1022.51 1022.61 1022.87 1023.30 1023.69 1023.91
1014.01 1014.30 1014.50 1014.54 1014.85 1015.02 1015.21 1015.93 1016.74 1017.41 1017.91 1018.26 1018.76 1019.38 1019.72 1020.01 1020.38 1020.61 1020.82 1021.13 1021.41 1021.78 1021.94 1022.02 1022.06 1022.26 1022.19 1022.45 1022.69 1023.15 1023.51 1023.71
1012.68 1013.19 1014.20 1014.61 1014.49 1014.56 1014.93 1015.26 1015.88 1016.46 1017.16 1017.82 1018.15 1018.71 1019.32 1019.79 1020.14 1020.41 1020.63 1021.01 1021.32 1021.62 1022.00 1022.24 1022.13 1022.30 1022.41 1022.56 1022.67 1022.95 1023.29 1023.62
1012.56 1012.87 1013.13 1013.85 1014.55 1014.47 1014.83 1015.38 1015.51 1015.78 1016.41 1017.06 1017.63 1017.99 1018.52 1019.18 1019.60 1019.98 1020.39 1020.78 1021.11 1021.38 1021.84 1021.95 1022.19 1022.20 1022.39 1022.51 1022.60 1022.74 1022.90 1023.22
1012.54 1012.74 1012.67 1013.03 1013.70 1014.57 1014.81 1015.21 1015.37 1015.53 1015.50 1015.74 1016.68 1017.26 1017.74 1018.34 1018.88 1019.36 1019.83 1020.37 1020.84 1021.28 1021.54 1021.78 1021.76 1022.00 1022.37 1022.51 1022.66 1022.61 1022.82 1022.79
1014.21 1013.41 1013.28 1013.64 1013.50 1013.62 1014.11 1014.30 1014.42 1014.81 1014.84 1015.07 1015.36 1016.11 1016.86 1017.43 1017.98 1018.57 1019.12 1019.63 1020.12 1020.68 1021.14 1021.53 1021.75 1021.72 1022.52 1022.97 1022.93 1022.85 1022.89 1022.97
1015.49 1014.85 1014.11 1013.68 1013.58 1013.61 1013.68 1013.34 1013.22 1013.31 1014.22 1014.79 1015.11 1015.48 1015.94 1016.49 1016.94 1017.78 1018.31 1018.99 1019.49 1019.97 1020.50 1021.04 1021.18 1021.34 1021.79 1022.43 1023.08 1023.21 1022.96 1022.89
1016.64 1016.08 1015.26 1014.37 1012.91 1013.14 1013.35 1013.78 1014.03 1014.26 1014.36 1014.42 1014.37 1014.40 1014.78 1015.43 1016.02 1016.68 1017.56 1018.13 1018.55 1019.10 1019.69 1020.06 1020.51 1020.97 1020.80 1021.09 1022.57 1022.47 1022.68 1022.77
1017.22 1016.46 1015.50 1014.40 1013.31 1012.45 1012.58 1012.83 1013.17 1013.02 1012.87 1012.86 1013.00 1013.64 1014.26 1014.79 1015.34 1015.94 1016.42 1017.14 1017.70 1018.09 1018.73 1019.08 1019.73 1020.17 1020.81 1020.25 1020.28 1020.82 1021.84 1022.72
1017.80 1016.80 1015.77 1014.79 1014.06 1013.43 1012.63 1012.44 1012.37 1012.39 1012.73 1013.46 1012.81 1013.03 1013.65 1013.97 1014.56 1015.05 1015.68 1016.18 1016.79 1017.26 1017.84 1018.35 1018.46 1018.84 1019.26 1019.72 1020.18 1020.50 1020.70 1021.49
1018.02 1016.98 1016.32 1015.67 1014.87 1014.20 1013.70 1012.88 1012.42 1012.09 1012.15 1012.37 1012.44 1012.73 1012.88 1013.25 1013.76 1014.32 1014.62 1015.17 1015.67 1016.05 1016.68 1017.20 1017.46 1017.81 1018.19 1018.41 1018.49 1019.21 1019.96 1020.46
1018.48 1017.39 1016.47 1016.02 1015.38 1014.78 1014.30 1013.45 1012.90 1011.75 1011.45 1011.52 1011.80 1012.12 1012.49 1012.70 1012.76 1013.23 1013.68 1013.95 1014.40 1015.12 1015.70 1016.13 1016.40 1016.85 1017.19 1017.33 1017.62 1017.86 1018.61 1019.19
1019.17 1018.21 1016.97 1015.99 1015.64 1015.02 1014.37 1013.66 1012.96 1011.98 1010.87 1010.81 1010.81 1010.94 1011.25 1011.41 1012.03 1012.43 1012.49 1013.01 1013.53 1014.19 1014.63 1015.02 1015.55 1015.89 1016.29 1016.70 1016.79 1016.96 1017.47 1017.94
Thickness
5755 5752 5750 5749 5747 5744 5741 5737 5735 5731 5727 5724 5722 5720 5719 5718 5717 5714 5711 5709 5708 5706 5705 5706 5705 5704 5702 5701 5698 5696 5695 5693
5752 5751 5748 5745 5742 5741 5738 5735 5732 5731 5727 5723 5720 5719 5718 5718 5717 5716 5713 5712 5710 5707 5705 5704 5703 5703 5702 5700 5697 5694 5692 5691
5748 5748 5745 5742 5740 5737 5736 5733 5729 5727 5725 5722 5719 5716 5716 5716 5717 5716 5715 5714 5711 5708 5705 5703 5703 5702 5701 5699 5697 5694 5691 5689
5742 5743 5743 5740 5737 5735 5732 5729 5727 5724 5723 5721 5718 5715 5713 5715 5715 5714 5714 5713 5712 5709 5705 5702 5701 5700 5698 5697 5695 5693 5691 5688
5734 5739 5739 5739 5736 5733 5731 5728 5725 5723 5720 5720 5717 5714 5712 5711 5713 5713 5712 5711 5711 5710 5707 5703 5700 5699 5699 5696 5694 5693 5691 5687
5732 5732 5733 5735 5735 5732 5729 5727 5724 5722 5720 5717 5717 5714 5710 5710 5709 5710 5711 5710 5709 5709 5707 5704 5700 5698 5698 5696 5694 5692 5690 5686
5725 5729 5731 5733 5733 5731 5729 5726 5724 5721 5720 5717 5715 5714 5712 5709 5708 5707 5708 5708 5708 5707 5706 5705 5702 5699 5697 5696 5694 5692 5689 5688
5719 5724 5728 5727 5732 5732 5731 5727 5723 5721 5720 5719 5715 5713 5712 5710 5707 5706 5706 5706 5706 5706 5706 5705 5704 5700 5698 5697 5696 5692 5689 5687
5717 5719 5719 5724 5726 5728 5731 5729 5725 5721 5719 5719 5717 5713 5712 5710 5708 5706 5705 5705 5704 5702 5702 5702 5704 5701 5700 5698 5696 5693 5689 5687
5721 5721 5715 5715 5722 5724 5726 5728 5726 5724 5721 5718 5718 5715 5712 5710 5708 5706 5705 5703 5702 5701 5699 5698 5701 5701 5699 5697 5696 5693 5690 5687
5711 5714 5718 5715 5712 5716 5719 5719 5722 5723 5721 5719 5717 5716 5714 5711 5708 5706 5705 5703 5701 5699 5698 5698 5697 5699 5699 5698 5695 5693 5692 5689
5701 5705 5710 5711 5710 5706 5707 5711 5715 5717 5722 5723 5719 5717 5715 5714 5711 5708 5706 5703 5701 5698 5696 5696 5697 5696 5697 5696 5695 5693 5691 5690
5679 5689 5693 5692 5700 5706 5708 5711 5717 5719 5722 5724 5724 5720 5717 5715 5714 5712 5709 5707 5704 5699 5696 5694 5693 5695 5690 5686 5688 5691 5689 5688
5653 5665 5678 5682 5686 5691 5697 5708 5716 5720 5715 5714 5716 5717 5717 5716 5717 5714 5712 5708 5705 5701 5698 5693 5693 5695 5690 5686 5679 5682 5685 5686
5629 5642 5655 5670 5688 5688 5690 5691 5694 5697 5703 5709 5717 5722 5721 5717 5717 5714 5711 5711 5709 5705 5701 5698 5694 5692 5695 5692 5677 5680 5683 5684
5608 5623 5637 5656 5671 5684 5687 5690 5691 5700 5708 5717 5721 5719 5717 5716 5714 5711 5711 5711 5710 5709 5704 5702 5696 5692 5690 5698 5698 5695 5684 5681
5590 5604 5623 5637 5652 5664 5677 5683 5690 5695 5699 5695 5707 5712 5711 5712 5712 5711 5709 5710 5711 5709 5706 5702 5703 5700 5698 5694 5692 5691 5692 5687
5573 5590 5600 5616 5626 5642 5653 5670 5678 5683 5691 5695 5698 5700 5706 5709 5708 5706 5709 5709 5710 5712 5709 5705 5705 5703 5701 5700 5702 5696 5691 5688
5555 5572 5586 5596 5608 5619 5633 5648 5660 5677 5685 5689 5692 5693 5695 5699 5707 5707 5708 5711 5713 5710 5708 5708 5707 5703 5703 5704 5703 5703 5698 5693
5532 5548 5567 5581 5591 5602 5615 5632 5645 5660 5676 5683 5690 5695 5698 5702 5699 5700 5706 5706 5707 5706 5707 5708 5705 5704 5702 5700 5702 5704 5701 5699